Historyczne dane pomiarowe

Dodano dane terminowe – wersja testowa.

Dane z okresu 1951-2019

Wersja bazy: 1.34 [2019-03-16, lista zmian], aktualizacja planowana na 2019-04-15

Dane meteo z obszaru Polski uzyskane na podstawie danych udostępnionych przez Instytut Meteorologii i Gospodarki Wodnej – Państwowy Instytut Badawczy.

 

Wybierz Datę:    

       

TemperaturaWilgotnośćWiatrCiśnienieOpadyŚniegCzas trwania zjawisk
 Stacja t tx tn tng RH VA  wxwx mslp ppp RRR   cm mm wxwxwxwxwxwxwx
2019-07-01 22.9 29.1 18.2 14.1 61.5------- 1.2------------
2019-06-30 23.4 31.9 12.3 9.5 46.5------- 0.0------------
2019-06-29 17.7 24.5 8.4 5.5 64.8------- 0.0------------
2019-06-28 15.4 20.5 9.1 6.3 66.5------- 0.0------------
2019-06-27 21.3 29.0 17.7 17.2 68.3------- 2.7------------
2019-06-26 26.1 33.0 17.7 15.8 56.3------- 0.0------------
2019-06-25 22.3 28.4 13.3 11.4 47.0------- 0.0------------
2019-06-24 19.5 25.5 11.7 9.0 53.8------- 0.0------------
2019-06-23 17.7 23.8 9.2 7.6 57.0------- 0.0------------
2019-06-22 18.2 22.3 14.5 14.0 69.8------- 0.0------------
2019-06-21 20.3 25.5 16.8 16.8 83.3------- 6.9------------
2019-06-20 23.2 29.2 16.7 15.3 69.8------- 4.9------------
2019-06-19 21.7 27.1 14.2 13.3 61.0------- 0.0------------
2019-06-18 18.3 24.2 9.2 7.5 64.8------- 0.0------------
2019-06-17 18.9 22.6 15.3 15.3 74.8------- 0.0------------
2019-06-16 20.4 26.6 17.1 17.1 83.5------- 0.0------------
2019-06-15 22.5 28.4 15.3 14.2 72.0------- 7.0------------
2019-06-14 21.2 25.5 16.7 16.7 80.8------- 0.0------------
2019-06-13 24.5 31.0 20.1 18.5 60.8------- 9.3------------
2019-06-12 25.2 31.0 18.1 17.7 54.5------- 0.0------------
2019-06-11 24.8 30.3 17.4 16.8 61.8------- 0.0------------
2019-06-10 20.4 27.4 11.3 9.8 54.3------- 0.0------------
2019-06-09 18.2 23.1 12.8 11.3 59.3------- 0.0------------
2019-06-08 20.7 26.4 16.0 14.5 78.3------- 2.4------------
2019-06-07 20.6 26.3 14.7 14.7 72.8------- 0.0------------
2019-06-06 21.6 26.5 16.1 14.7 73.0------- 1.7------------
2019-06-05 22.2 27.0 15.7 13.0 61.3------- 0.2------------
2019-06-04 20.7 27.1 11.9 10.0 59.3------- 0.0------------
2019-06-03 18.2 24.2 10.3 8.3 54.5------- 0.0------------
2019-06-02 19.3 25.3 13.7 11.8 64.0------- 0.0------------
2019-06-01 17.2 22.1 11.2 8.4 69.3------- 0.0------------
2019-05-31 14.9 21.9 5.4 3.5 60.0------- 0.0------------
2019-05-30 11.9 17.9 2.9 1.3 57.5------- 0.0------------
2019-05-29 12.3 16.4 10.2 10.2 84.0------- 0.1------------
2019-05-28 17.5 22.6 14.5 12.7 86.3------- 16.5------------
2019-05-27 19.0 24.5 13.3 11.2 57.3------- 0.8------------
2019-05-26 13.2 17.6 7.3 5.1 68.5------- 0.0------------
2019-05-25 15.4 21.7 9.4 7.4 68.0------- 0.0------------
2019-05-24 14.8 20.3 10.5 10.5 79.8------- 0.0------------
2019-05-23 16.4 23.4 10.2 8.9 77.5------- 3.0------------
2019-05-22 15.6 19.2 10.9 10.6 79.5------- 0.0------------
2019-05-21 18.0 22.9 13.1 11.8 82.0------- 2.3------------
2019-05-20 19.2 25.7 14.5 13.9 73.8------- 27.0------------
2019-05-19 18.3 21.3 14.0 13.9 80.3------- 0.1------------
2019-05-18 17.2 22.4 12.5 9.3 88.3------- 17.0------------
2019-05-17 16.3 20.7 12.4 12.4 90.5------- 1.6------------
2019-05-16 15.3 19.1 12.7 12.8 90.0------- 23.0------------
2019-05-15 10.9 13.2 8.1 8.1 91.0------- 10.8------------
2019-05-14 7.5 9.2 5.2 5.2 88.3------- 0.0------------
2019-05-13 9.7 16.2 6.9 6.9 88.8------- 7.1------------
2019-05-12 13.4 19.9 5.9 2.6 69.0------- 0.0------------
2019-05-11 11.3 17.2 4.5 2.6 87.5------- 4.6------------
2019-05-10 10.3 13.7 6.9 7.6 81.8------- 1.2------------
2019-05-09 10.5 17.4 1.5 -2.6 40.8------- 0.0------------
2019-05-08 7.4 13.1 -1.1 -4.5 42.8------- 0.0------------
2019-05-07 8.2 12.7 2.9 0.7 52.0------- 0.0------------
2019-05-06 6.6 13.3 -2.7 -6.5 44.8------- 0.0------------
2019-05-05 6.3 10.8 3.2 3.2 72.5------- 0.0------------
2019-05-04 8.4 12.8 2.0 -1.0 53.5------- 0.0------------
2019-05-03 7.8 11.0 6.2 5.9 77.8------- 0.7------------
185.2 ms

 

Źródłem pochodzenia danych jest Instytut Meteorologii i Gospodarki Wodnej – Państwowy Instytut Badawczy. Dane Instytutu Meteorologii i Gospodarki Wodnej – Państwowego Instytutu Badawczego zostały przetworzone.

Dane źródłowe można odnaleźć na stronie https://dane.imgw.pl